GEFSSE_con_probscp_096.txt.gz
Probability
1 2 3 5 5 5 6 9 11 10 9 7 4 2 1 1 0 0 0 0 0 0 0 0 0 0 0 0 0 0 0 0 0 0 0 0 0 0 0 0 0 0 0
2 2 3 5 6 6 6 7 7 7 6 5 4 3 3 2 0 0 0 0 0 0 0 0 0 0 0 0 0 0 0 0 0 0 0 0 0 0 0 0 0 0 0
5 4 4 5 6 6 5 4 4 4 4 4 5 5 4 1 0 0 0 0 0 0 0 0 0 0 0 0 0 0 0 0 0 0 0 0 0 0 0 0 0 0 0
6 5 6 7 8 8 5 3 3 3 3 3 4 4 2 0 0 0 0 0 0 0 0 0 0 0 0 0 0 0 0 0 0 0 0 0 0 0 0 0 0 0 0
7 6 9 13 14 12 9 7 5 3 3 2 1 1 0 0 0 0 0 0 0 0 0 0 0 0 0 0 0 0 0 0 0 0 0 0 0 0 0 0 0 0 0
16 13 15 20 20 17 15 13 9 5 3 1 1 1 0 0 0 0 0 0 0 0 0 0 0 0 0 0 0 0 0 0 0 0 0 0 0 0 0 0 0 0 0
32 27 26 28 26 22 21 20 16 11 6 3 3 2 1 1 1 0 0 0 0 0 0 1 1 0 0 0 0 0 0 0 0 0 0 0 0 0 0 0 0 0 0
46 41 36 34 31 29 27 25 22 17 11 6 4 3 2 2 2 1 1 0 0 0 0 1 2 1 0 0 0 0 0 0 0 0 0 0 0 0 0 0 0 0 0
50 46 41 37 35 34 33 30 26 21 17 11 7 5 4 4 3 2 2 1 0 0 0 1 2 2 1 0 0 1 1 1 0 0 0 0 0 0 0 0 0 0 0
49 48 45 42 41 40 39 36 30 25 21 17 13 11 9 8 6 5 4 3 1 0 0 1 2 2 1 0 0 1 2 1 0 0 0 0 0 0 0 0 0 0 0
49 49 49 49 49 49 46 43 38 33 28 23 21 20 18 14 10 8 7 5 2 1 1 0 1 1 1 1 1 3 2 1 0 0 0 0 0 0 0 0 1 1 1
45 44 46 50 54 54 51 49 49 46 39 33 29 29 28 24 17 13 12 9 7 5 5 5 4 5 6 5 5 5 3 1 0 0 0 0 0 0 0 1 2 3 4
39 37 37 42 50 52 51 53 56 57 51 43 38 37 38 35 26 21 18 16 13 14 15 14 14 14 13 11 9 7 5 3 1 1 0 0 0 0 0 1 3 5 6
35 33 31 36 43 45 44 48 56 62 59 53 48 45 44 42 35 29 24 21 19 21 22 22 20 19 16 13 11 8 6 4 3 2 1 0 0 0 0 0 1 3 5
32 30 31 33 36 37 37 42 53 61 61 59 54 49 46 43 41 35 28 25 23 22 24 24 21 17 15 15 13 9 6 5 5 4 3 1 1 1 1 0 1 2 3
27 27 29 30 30 31 32 36 45 52 55 54 51 46 42 40 40 36 30 27 25 22 21 21 18 15 14 16 15 10 7 6 6 5 3 2 2 2 2 3 4 5 4
20 22 26 27 26 25 26 28 33 38 40 41 39 37 35 34 35 34 30 25 22 20 17 16 14 12 13 15 15 11 8 7 6 5 4 3 3 3 4 5 8 9 8
12 15 20 23 23 21 19 21 22 22 23 24 24 25 26 26 28 30 28 22 19 17 14 12 11 11 12 13 11 9 7 6 5 5 6 5 4 4 4 6 10 13 14
7 8 12 16 17 16 15 14 12 11 10 11 12 14 17 18 19 22 22 19 16 15 14 13 12 11 10 10 8 6 6 6 5 6 7 6 4 3 4 6 9 13 14
3 4 6 9 9 11 11 8 6 5 5 5 5 7 9 10 11 13 14 13 11 12 13 12 11 10 9 8 7 6 5 4 5 6 6 5 3 2 3 5 8 10 12
1 2 4 5 5 5 5 4 3 3 3 3 3 3 4 5 6 7 7 6 6 7 8 9 7 6 6 7 7 5 3 3 4 5 6 5 3 2 3 4 6 9 12
1 2 2 3 3 2 1 1 1 1 1 1 2 1 1 1 2 3 3 3 2 3 3 3 2 2 3 4 4 4 3 3 3 3 4 4 4 4 4 4 5 8 11
0 1 1 2 2 1 0 0 0 0 0 0 0 0 0 0 0 1 1 1 1 1 1 0 0 0 1 1 2 3 3 2 1 1 2 3 3 4 5 6 6 8 10
0 0 0 0 0 0 0 0 0 0 0 0 0 0 0 0 0 0 0 0 0 0 0 0 0 0 0 0 1 1 2 1 0 0 1 1 2 3 4 5 6 8 11
0 0 0 0 0 0 0 0 0 0 0 0 0 0 0 0 0 0 0 0 0 0 0 0 0 0 0 0 0 0 0 0 0 0 0 0 1 1 2 2 4 7 11
0 0 0 0 0 0 0 0 0 0 0 0 0 0 0 0 0 0 0 0 0 0 0 0 0 0 0 0 0 0 0 0 0 0 0 0 0 0 0 1 4 7 9

GEFSSE_con_probscp_102.txt.gz
Probability
1 3 4 3 1 0 0 0 1 2 4 5 4 1 0 0 0 0 0 0 0 0 0 0 0 0 0 0 0 0 0 0 0 0 0 0 0 0 0 0 0 0 0
1 3 3 3 1 0 0 0 1 3 5 5 4 2 1 0 0 0 0 0 0 0 0 0 0 0 0 0 0 0 0 0 0 0 0 0 0 0 0 0 0 0 0
1 2 2 1 1 0 0 1 3 4 6 6 5 3 2 2 1 0 0 0 0 0 0 0 0 0 0 0 0 0 0 0 0 0 0 0 0 0 0 0 0 0 0
2 2 1 1 1 1 2 3 5 7 8 8 7 4 3 3 2 1 0 0 0 0 0 0 0 0 0 0 0 0 0 0 0 0 0 0 0 0 0 0 0 0 0
3 3 4 4 3 4 5 6 7 9 10 10 8 5 3 3 3 2 1 0 0 0 0 0 0 0 0 0 0 0 0 0 0 0 0 0 0 0 0 0 0 0 0
4 4 6 6 5 6 7 7 7 8 8 9 7 5 3 3 3 2 1 0 0 0 0 0 0 0 0 0 0 0 0 0 0 0 0 0 0 0 0 0 0 0 0
3 4 6 6 6 6 8 8 7 6 6 7 6 5 3 3 3 2 1 0 0 0 0 0 0 0 0 0 0 0 0 0 0 0 0 0 0 0 0 0 0 0 0
3 4 5 5 4 5 6 6 7 6 5 5 5 5 4 3 3 2 1 0 0 0 0 0 0 0 0 0 0 0 0 0 0 0 0 0 0 0 0 0 0 0 0
4 4 4 4 3 2 2 3 4 5 4 4 4 4 3 2 2 2 1 0 0 0 0 0 0 0 0 0 0 0 0 0 0 0 0 0 0 0 0 0 0 0 0
8 7 8 7 6 3 2 4 5 5 5 5 4 2 1 1 1 1 1 1 1 0 0 0 0 0 0 0 0 0 0 0 0 0 0 0 0 0 0 0 0 0 0
16 15 15 13 10 6 6 8 9 9 9 8 7 6 5 4 3 3 5 5 4 2 2 1 0 0 0 0 1 1 0 0 0 0 0 1 0 0 0 0 0 0 0
24 22 21 20 15 11 12 16 15 16 19 18 19 22 22 21 17 16 17 16 11 7 6 7 5 3 3 5 7 5 2 0 0 0 2 4 2 0 0 0 0 0 0
26 25 25 26 24 20 22 27 29 30 33 34 36 41 47 48 42 37 37 34 26 22 22 23 22 17 14 16 16 12 6 3 2 2 5 9 5 0 0 0 0 0 0
29 29 31 32 33 33 34 39 42 42 45 47 49 53 60 65 61 57 56 51 46 45 44 43 41 35 29 25 21 16 11 7 5 5 9 12 8 2 0 0 0 0 1
35 36 35 35 39 43 43 44 44 45 49 53 55 56 59 62 63 63 64 61 57 56 55 53 50 44 38 31 23 18 16 11 7 6 9 14 11 4 0 0 1 1 2
45 43 38 34 36 40 41 40 40 44 50 54 54 52 51 53 54 56 59 59 55 53 53 52 49 46 41 33 24 20 19 15 10 8 10 14 13 6 1 1 3 5 5
51 47 38 31 31 34 35 34 35 39 44 45 44 44 43 43 45 47 49 49 47 45 47 47 45 44 42 35 26 24 25 20 14 11 12 15 13 8 2 1 5 10 13
49 46 38 31 32 32 30 28 29 31 32 30 31 32 32 31 34 38 40 39 37 36 38 39 39 38 38 34 29 26 24 20 13 10 11 15 17 14 9 7 10 15 20
39 39 36 33 34 31 27 25 26 25 23 19 19 19 20 20 24 29 32 32 30 31 32 32 31 32 31 29 25 21 18 15 12 9 8 12 17 17 16 18 20 21 24
25 28 28 28 29 27 24 24 23 21 17 13 12 12 12 14 17 21 25 25 25 27 28 26 25 25 25 23 19 15 12 12 13 14 12 11 14 14 16 25 32 32 32
16 17 18 19 22 23 22 19 18 16 12 10 11 11 10 10 11 13 16 17 18 19 20 21 21 20 20 20 18 14 10 9 12 16 17 13 11 11 13 24 36 44 46
10 9 11 13 15 17 16 13 12 11 9 9 12 12 8 6 6 8 9 9 10 12 13 16 18 17 17 19 20 16 10 6 7 11 14 13 13 14 14 19 31 43 50
4 4 7 12 14 13 12 9 7 6 7 8 11 10 7 5 6 7 7 6 6 7 8 11 13 11 12 15 17 16 10 6 5 6 6 9 13 16 15 15 21 31 37
4 4 7 12 13 11 9 7 5 4 4 6 8 8 6 5 6 6 6 5 4 3 4 6 6 5 7 10 12 11 9 7 6 3 2 3 8 11 12 13 16 21 25
4 4 6 8 9 7 6 6 6 5 4 5 5 4 3 3 4 4 4 6 6 4 3 3 3 3 4 6 7 7 7 7 5 3 1 1 3 5 7 11 17 21 23
2 2 3 5 6 5 4 5 5 6 5 4 3 2 1 1 2 2 3 6 8 7 4 3 2 3 4 4 6 6 6 5 5 3 1 1 2 2 5 11 19 23 24

GEFSSE_con_probscp_108.txt.gz
Probability
10 6 2 1 0 0 0 0 0 0 0 0 0 0 0 0 0 0 0 0 0 0 0 0 0 0 0 0 0 0 0 0 0 0 0 0 0 0 0 0 0 0 0
13 8 4 1 0 0 0 0 0 0 0 0 0 0 0 0 0 0 0 0 0 0 0 0 0 0 0 0 0 0 0 0 0 0 0 0 0 0 0 0 0 0 0
14 10 4 1 0 0 0 0 0 0 0 0 0 0 0 0 0 0 0 0 0 0 0 0 0 0 0 0 0 0 0 0 0 0 0 0 0 0 0 0 0 0 0
14 9 5 3 1 0 0 0 0 0 0 0 0 0 0 0 0 0 0 0 0 0 0 0 0 0 0 0 0 0 0 0 0 0 0 0 0 0 0 0 0 0 0
14 9 6 5 2 0 0 0 0 0 0 0 0 0 0 0 0 0 0 0 0 0 0 0 0 0 0 0 0 0 0 0 0 0 0 0 0 0 0 0 0 0 0
16 13 9 6 3 1 0 0 0 0 0 0 0 0 0 0 0 0 0 0 0 0 0 0 0 0 0 0 0 0 0 0 0 0 0 0 0 0 0 0 0 0 0
27 23 16 12 9 5 2 0 0 0 0 1 0 0 0 0 0 0 0 0 0 0 0 0 0 0 0 0 0 0 0 0 0 0 1 2 1 0 0 0 0 0 0
42 35 25 20 16 10 5 1 1 1 1 1 1 1 1 0 0 0 0 0 0 0 0 0 0 0 0 0 0 0 0 0 0 0 1 3 2 0 0 0 0 0 0
50 40 27 20 16 11 6 4 4 4 3 3 3 3 3 2 1 1 2 1 1 1 0 0 0 0 0 0 0 0 0 0 0 0 1 3 3 1 0 0 0 0 0
49 40 27 19 14 8 5 7 9 8 6 6 6 6 6 5 4 5 6 5 4 2 1 1 1 1 1 0 0 0 0 0 0 1 4 9 9 4 1 0 0 0 0
53 46 36 28 17 7 9 16 15 11 10 10 10 11 10 7 8 13 20 22 17 11 7 5 6 5 3 1 1 1 0 0 0 3 12 22 21 12 5 1 0 0 0
60 53 47 40 26 15 23 32 24 19 22 19 19 25 25 20 20 28 43 48 39 27 20 18 17 13 7 6 6 5 2 1 0 6 22 36 34 23 11 4 1 0 0
57 53 53 52 40 34 43 46 35 32 38 35 34 43 46 43 43 48 59 64 55 42 33 32 31 22 14 13 14 12 6 2 1 10 29 43 41 30 18 8 3 1 0
53 52 59 63 58 55 56 52 43 43 48 48 49 55 59 61 61 61 64 64 57 48 41 40 41 33 25 24 23 19 11 4 4 13 31 43 43 36 27 18 9 3 1
59 61 67 72 72 68 63 57 51 50 51 55 58 60 63 66 65 63 62 60 55 48 44 44 43 40 36 34 31 26 18 12 10 16 28 39 41 39 35 28 19 10 5
67 69 72 75 76 74 67 61 57 56 56 58 62 62 62 63 62 60 57 53 49 45 43 41 41 40 39 36 32 27 24 20 18 19 25 34 38 38 37 34 30 22 16
70 72 71 69 72 74 68 61 57 56 57 58 57 57 55 54 53 53 50 44 39 39 36 34 33 33 31 29 27 24 24 24 22 21 23 29 32 33 33 35 37 34 28
69 69 66 63 65 67 61 52 47 48 50 48 45 46 45 41 41 43 41 35 32 32 29 26 27 25 23 22 22 22 22 22 21 20 21 25 27 27 29 33 39 40 36
62 62 61 60 59 53 44 37 33 34 35 34 34 37 36 32 31 33 32 30 28 27 25 24 25 23 20 17 16 16 18 19 19 18 20 20 21 24 26 29 37 41 38
53 54 55 56 51 41 33 30 29 28 26 25 25 28 28 25 25 26 25 25 25 24 24 24 25 24 19 14 11 10 13 16 17 17 18 18 18 21 23 28 37 42 40
41 43 46 47 44 38 34 34 33 30 25 22 21 20 19 18 19 20 20 22 24 23 21 20 21 19 16 12 10 8 9 12 13 14 16 18 18 20 23 30 40 46 45
24 28 35 39 39 36 34 33 31 27 22 18 17 16 14 14 15 15 16 20 23 21 16 14 13 13 11 10 9 7 5 5 6 9 14 17 20 24 27 31 40 45 44
14 18 26 33 33 29 25 22 20 18 15 13 15 16 15 12 12 13 15 18 20 17 14 11 11 11 9 7 6 4 3 3 3 6 10 14 22 29 30 29 33 38 38
11 14 21 27 26 20 16 14 12 10 9 11 15 16 14 10 9 10 13 15 15 14 13 12 12 12 10 6 4 3 3 4 3 4 7 10 19 27 28 23 24 31 35
8 13 18 20 19 14 10 9 9 9 9 11 14 13 10 8 8 8 9 11 11 12 12 12 12 11 10 6 3 2 3 3 2 3 4 6 10 18 22 19 20 30 36
7 11 14 16 15 10 7 8 9 10 11 11 10 9 7 8 8 8 8 10 11 11 12 13 11 9 8 6 2 2 2 2 2 1 1 2 4 11 18 19 22 31 38

GEFSSE_con_probscp_114.txt.gz
Probability
1 2 4 3 1 1 1 0 0 0 0 0 0 0 0 0 0 0 0 0 0 0 0 0 0 0 0 0 0 0 0 0 0 0 0 0 0 0 0 0 0 0 0
3 3 5 5 3 2 2 1 0 0 0 0 0 0 0 0 0 0 0 0 0 0 0 0 0 0 0 0 0 0 0 0 0 0 0 0 0 0 0 0 0 0 0
6 5 6 7 5 4 3 1 0 0 0 0 0 0 0 0 0 0 0 0 0 0 0 0 0 0 0 0 0 0 0 0 0 0 0 0 0 0 0 0 0 0 0
9 6 7 9 8 6 5 2 1 0 0 0 0 0 0 0 0 0 0 0 0 0 0 0 0 0 0 0 0 0 0 0 0 0 0 0 0 0 0 0 0 0 0
11 9 9 12 11 9 6 3 1 0 0 0 0 0 0 0 0 0 0 0 0 0 0 0 0 0 0 0 0 0 0 0 0 0 0 0 0 0 0 0 0 0 0
13 11 11 13 13 11 8 4 2 0 0 0 0 0 0 0 0 0 0 0 0 0 0 0 0 0 0 0 0 0 0 0 0 0 0 0 0 0 0 0 0 0 0
14 12 11 12 14 14 10 6 3 1 0 0 0 0 0 0 0 0 0 0 0 0 0 0 0 0 0 0 0 0 0 0 0 0 0 0 0 0 0 0 0 0 0
16 14 12 12 15 17 14 9 6 3 1 0 0 0 0 0 0 0 0 0 0 0 0 0 0 0 0 0 0 0 0 0 0 0 0 0 0 0 0 0 0 0 0
20 18 16 15 16 17 15 11 8 5 2 1 1 0 0 0 0 0 0 0 0 0 0 0 0 0 0 0 0 0 0 0 0 0 0 0 0 0 0 0 0 0 0
19 18 17 17 16 15 13 10 8 6 3 3 2 1 0 0 0 1 1 1 0 1 1 1 1 1 0 0 0 0 0 0 0 0 0 0 0 1 1 1 1 1 0
16 14 15 16 14 10 8 7 6 5 4 4 4 3 2 1 1 3 3 2 1 2 3 3 3 1 1 1 0 0 0 0 0 0 0 1 1 3 4 5 4 3 2
13 11 12 13 10 6 5 5 4 3 4 5 6 6 6 3 3 4 4 2 1 3 4 5 4 2 1 1 0 0 0 0 0 0 0 2 4 6 8 10 9 7 4
14 12 11 11 8 5 6 7 6 5 5 6 7 8 9 7 5 5 5 4 4 5 7 8 7 5 4 2 1 0 0 1 0 0 0 4 9 12 12 13 12 9 7
19 17 16 14 12 9 9 10 9 8 7 6 7 9 10 10 8 5 6 9 10 10 10 11 10 7 7 6 3 1 1 1 0 0 1 6 14 19 18 15 13 10 8
23 23 23 23 19 15 14 14 12 9 8 7 9 11 11 10 7 4 5 10 11 11 11 10 8 6 6 7 5 3 3 2 1 2 3 8 16 22 22 16 12 10 8
22 23 25 26 23 19 19 17 13 9 9 10 11 12 11 8 5 3 4 5 5 5 6 7 5 4 3 3 3 3 4 4 2 2 4 8 14 19 19 18 14 10 8
20 21 21 22 21 20 22 20 14 10 10 10 10 10 9 6 3 3 3 1 0 1 2 3 3 3 2 2 3 3 3 2 1 1 2 5 9 11 15 18 17 12 9
22 21 20 20 19 20 22 20 14 10 8 7 6 6 5 3 2 2 2 1 0 0 0 1 1 2 3 3 4 3 1 0 0 0 1 2 4 7 10 13 15 15 12
25 24 22 20 17 17 17 16 12 8 4 3 3 3 3 2 1 1 1 0 0 0 0 0 0 1 2 3 2 1 0 0 1 1 1 1 2 4 6 7 10 12 12
24 22 18 14 12 12 12 10 7 4 1 1 3 2 1 1 0 0 0 0 0 0 0 0 0 0 1 1 1 0 0 0 1 2 2 2 2 2 3 4 5 6 7
16 14 11 8 6 7 7 6 3 1 0 0 1 1 0 0 0 0 0 0 0 0 0 0 0 0 0 0 0 0 0 0 0 1 1 2 2 2 3 4 4 4 4
8 6 5 4 3 3 3 2 1 0 0 0 0 0 0 0 0 0 0 0 0 0 0 0 0 0 0 0 0 0 0 0 0 0 0 1 2 2 2 3 5 6 6
4 3 2 2 2 1 0 0 0 0 0 0 0 0 0 0 0 0 0 0 0 0 0 0 0 0 0 0 0 0 0 0 0 0 0 0 1 1 1 2 4 7 8
2 2 1 0 1 1 0 0 0 0 0 0 0 0 0 0 0 0 0 0 0 0 0 0 0 0 0 0 0 0 0 0 0 0 0 0 0 0 0 1 2 3 5
1 1 0 0 0 0 0 0 0 0 0 0 0 0 0 0 0 0 0 0 0 0 0 0 0 0 0 0 0 0 0 0 0 0 0 0 0 0 0 0 0 1 1
0 0 0 0 0 0 0 0 0 0 0 0 0 0 0 0 0 0 0 0 0 0 0 0 0 0 0 0 0 0 0 0 0 0 0 0 0 0 0 0 0 0 0